Theta_e
308 307 306 306 307 307 307 307 307 309 309 310 312 313 312 310 309 307 306 305 303 303 302 301 301 302 301 300 299 298 296 296 293 297 299 300 293 291 290 290 291 290 291
303 303 303 304 304 303 303 303 304 304 305 304 304 305 306 306 307 305 304 304 303 301 301 300 300 300 300 300 299 297 296 296 294 293 296 296 296 294 293 291 288 289 289
300 299 299 299 299 298 298 299 299 300 300 301 301 301 301 301 302 303 303 301 301 301 301 300 300 299 296 298 297 297 297 296 295 293 293 296 296 288 287 288 287 287 287
298 297 296 296 296 296 296 296 296 296 296 296 296 296 295 296 296 295 294 296 296 297 298 298 298 298 296 296 296 295 295 294 294 292 292 293 294 291 287 288 285 285 285
293 292 292 292 292 292 292 293 293 292 293 292 292 292 293 293 291 291 292 294 293 292 293 293 294 293 291 294 295 295 294 292 293 292 291 292 292 288 282 287 284 287 286
289 288 288 288 288 288 288 288 288 289 290 290 290 291 291 289 292 292 291 290 290 290 290 290 291 290 290 292 293 294 294 292 290 290 290 290 291 291 291 286 286 284 283
287 286 285 285 285 285 285 285 285 286 287 287 287 288 288 289 291 291 290 288 288 289 289 289 289 289 288 290 291 291 291 292 294 291 289 289 290 291 291 289 286 286 286
284 283 283 283 282 282 283 283 283 284 284 285 285 285 285 285 288 289 289 287 287 288 289 289 288 288 289 288 288 287 287 288 288 289 289 290 290 291 290 290 290 288 286
281 280 280 279 278 279 280 280 281 282 282 283 283 283 283 284 287 287 287 286 286 287 287 288 288 287 288 289 286 285 285 286 289 291 292 292 292 293 292 290 287 285 284
277 277 277 277 276 277 278 278 279 280 281 282 282 283 283 282 286 287 287 286 285 285 286 286 287 286 288 289 286 286 284 285 286 286 287 288 290 289 291 289 287 285 283
275 275 275 274 274 276 276 276 277 278 279 280 281 282 283 283 284 287 288 285 285 284 284 284 285 288 288 288 288 286 285 287 287 287 287 287 287 287 287 287 287 286 284
272 272 272 272 273 275 273 275 275 277 277 279 280 281 283 283 285 286 287 287 287 285 285 285 285 287 288 289 288 289 288 287 285 285 285 285 285 285 286 286 286 286 286
270 270 271 272 273 273 273 274 275 276 276 276 277 277 278 280 281 284 285 286 286 285 285 286 287 288 288 287 287 287 285 285 284 283 283 284 285 286 286 285 285 285 284
269 270 272 271 271 273 273 274 273 274 274 274 274 274 275 277 278 280 281 281 283 284 285 285 286 287 287 287 285 285 285 284 283 283 283 284 285 284 284 285 283 280 280
269 270 270 271 270 271 272 272 273 274 274 273 273 274 274 274 276 280 280 280 281 283 284 284 283 284 284 285 285 285 285 284 283 283 282 282 283 284 283 283 282 280 278
269 269 268 268 269 270 270 270 274 275 275 276 277 276 276 278 279 280 281 282 283 284 282 281 281 282 283 284 284 283 283 283 283 282 282 282 282 282 280 280 280 279 277
264 266 266 267 268 268 268 268 267 270 273 274 275 276 277 278 278 279 280 281 283 284 281 281 281 282 283 284 283 283 282 282 282 282 282 282 282 281 278 278 278 278 277
263 263 265 266 267 267 267 267 267 267 267 268 273 274 275 275 276 277 278 277 275 278 280 280 280 282 283 283 283 282 282 282 282 282 281 282 280 280 278 277 277 277 276
264 265 264 265 266 265 266 267 267 268 267 267 268 270 271 273 274 274 274 270 269 269 270 271 272 274 280 283 282 282 282 282 282 281 281 281 280 280 277 278 277 277 276
264 262 262 264 265 265 266 266 266 266 266 266 266 266 267 269 266 266 267 267 267 266 267 267 268 271 272 272 277 282 282 282 281 281 281 281 280 280 279 278 277 276 276
264 264 261 264 264 265 265 264 265 265 265 265 265 266 271 265 265 265 265 265 265 265 265 265 266 267 268 269 270 272 273 280 282 281 281 281 280 278 278 278 277 277 276
263 263 263 263 264 264 263 264 264 264 264 264 264 265 269 265 264 264 264 264 264 265 266 265 265 266 266 267 268 268 269 269 271 273 279 281 280 279 278 278 277 277 276
262 262 263 263 263 261 263 263 263 263 263 263 263 263 263 263 263 263 263 263 263 263 264 264 264 264 265 266 267 269 268 268 268 270 272 277 279 279 279 278 277 276 276
261 261 261 262 262 261 261 262 262 261 262 262 262 263 262 262 262 262 262 262 262 262 263 263 264 263 263 264 266 267 268 271 269 268 270 272 274 276 278 278 277 276 274
260 260 260 260 260 260 260 261 261 261 261 261 261 261 262 262 261 262 262 262 261 261 262 263 263 263 263 263 264 265 267 269 269 268 268 270 271 272 272 273 274 274 272
259 259 259 259 259 259 259 259 259 259 259 259 260 260 260 260 260 260 260 260 259 259 260 261 262 262 262 263 263 265 267 269 270 267 267 267 268 268 268 269 270 270 270
Wind_Speed
7 6 7 6 6 5 5 5 4 3 2 0 1 1 2 2 1 2 3 3 5 5 5 6 9 8 6 7 7 7 9 9 14 11 9 8 5 9 8 9 10 11 10
7 8 8 8 8 8 7 7 6 5 5 5 4 3 3 3 2 4 5 3 5 5 6 7 10 6 9 9 7 10 10 10 10 20 12 9 12 9 9 10 9 7 9
8 8 9 9 9 9 8 8 7 6 6 5 4 4 4 4 5 4 5 7 6 8 7 8 9 8 8 8 8 9 9 9 10 12 15 10 9 3 7 7 7 8 8
9 10 9 9 9 9 8 8 8 7 7 6 6 4 4 4 4 4 4 7 8 8 9 9 11 10 10 10 9 11 10 10 9 10 13 13 9 5 5 7 8 7 10
10 10 10 9 9 9 8 7 6 5 4 4 5 5 5 4 3 5 4 4 6 9 10 9 9 10 12 12 9 11 9 9 11 11 13 12 11 7 6 6 8 9 8
10 9 9 8 6 7 6 6 6 6 6 6 6 5 6 4 9 10 7 6 6 7 9 10 9 11 11 16 19 22 18 14 14 10 13 15 17 11 9 8 10 7 8
9 8 8 7 7 7 7 7 7 7 6 6 6 6 6 6 9 11 10 6 7 8 9 9 9 7 9 11 18 21 19 21 23 16 18 18 18 13 11 11 10 12 12
8 7 8 7 7 7 7 7 7 6 7 7 7 7 8 8 15 16 14 8 8 9 10 10 11 12 12 14 15 16 17 15 14 12 15 19 16 14 11 11 15 13 11
8 8 7 6 6 7 6 7 6 7 6 7 7 8 7 10 18 19 16 9 9 10 8 8 10 13 17 20 14 17 20 16 14 21 25 29 30 29 24 12 12 10 10
7 6 5 6 6 7 8 7 6 6 8 7 9 8 9 10 15 17 15 7 10 9 9 10 14 11 19 19 12 12 17 19 18 15 13 16 19 18 23 15 11 12 10
5 4 6 8 7 6 6 6 7 7 7 8 9 8 9 8 9 15 16 9 10 11 11 11 10 18 20 21 22 13 16 18 20 16 14 12 11 12 10 10 10 10 11
7 6 6 6 4 5 6 6 7 7 7 7 8 8 6 5 8 11 16 18 18 11 12 11 13 25 27 27 22 22 24 23 13 13 13 12 11 9 9 9 11 10 10
5 4 3 4 3 4 5 5 5 5 5 7 7 8 8 8 8 18 19 21 20 13 11 19 28 27 27 22 22 22 19 11 11 12 13 11 9 8 9 6 9 10 7
2 2 2 3 5 3 4 4 5 5 6 7 8 9 10 9 9 9 10 12 17 15 16 13 20 24 27 21 15 13 8 9 10 10 11 9 9 10 7 6 5 3 3
1 1 4 4 5 5 5 5 5 4 6 8 8 9 12 12 10 22 20 13 13 16 19 12 13 12 12 11 9 8 7 8 9 9 10 10 9 8 4 3 3 3 4
3 4 5 5 5 6 6 6 8 11 14 17 17 14 9 21 25 26 27 29 29 27 12 11 12 11 12 11 9 7 8 10 9 9 8 8 7 4 2 1 1 3 3
4 4 4 4 5 6 6 6 9 9 13 14 16 19 21 22 27 28 28 28 28 20 8 9 11 11 11 9 7 8 9 7 8 8 7 7 4 2 3 3 3 3 3
2 1 2 3 4 5 5 6 6 7 9 9 13 18 20 25 26 27 26 22 12 13 10 10 11 11 9 9 8 7 7 6 6 5 6 5 2 3 2 3 3 4 3
2 2 3 3 3 4 5 5 5 6 6 8 8 10 12 21 24 22 22 9 10 10 10 10 11 11 13 8 8 7 7 6 5 5 5 4 3 3 2 3 3 5 5
2 2 1 3 3 4 4 4 4 5 6 6 7 7 10 11 10 10 9 8 8 9 10 10 10 11 11 12 13 9 6 6 5 4 4 3 3 3 3 3 3 3 4
1 1 1 2 3 3 3 4 5 5 5 6 7 7 18 8 8 8 9 8 8 9 10 10 10 10 9 10 10 11 11 10 5 4 4 3 3 3 3 2 2 3 3
1 1 2 2 3 3 3 4 4 5 5 6 6 7 16 5 6 7 8 8 8 8 7 9 9 9 9 10 10 10 10 10 11 11 9 4 3 3 2 2 2 3 4
1 2 2 2 3 4 4 3 4 5 5 6 6 6 6 6 6 6 7 7 8 8 8 7 8 9 9 9 9 9 8 9 9 10 9 9 5 3 3 3 3 3 4
2 3 3 3 3 3 4 4 5 6 5 6 6 6 6 6 7 8 7 7 7 8 8 8 7 10 10 10 9 9 10 8 8 9 11 8 8 8 5 3 1 2 3
2 3 3 3 3 4 4 5 5 5 5 6 6 6 7 7 7 7 7 7 7 8 9 9 7 10 11 14 13 16 16 18 9 13 8 9 9 9 6 5 4 1 2
4 4 4 4 4 4 4 5 5 5 6 6 6 7 7 7 7 7 7 7 7 8 10 8 9 12 13 10 12 17 17 18 12 13 9 8 8 7 7 6 5 2 1
Wind_Direction
90 98 91 84 87 85 82 76 67 93 65 38 346 222 240 264 259 266 260 227 223 230 220 225 236 234 230 228 221 221 228 231 260 274 272 268 225 232 232 230 238 238 243
78 88 89 88 83 79 74 66 53 57 55 38 30 9 351 326 286 281 284 249 236 236 239 231 243 240 240 237 230 232 232 232 247 272 270 269 256 238 238 236 234 233 238
81 78 75 74 72 67 64 62 55 45 41 40 23 15 353 345 325 318 293 291 287 280 275 268 264 252 251 252 241 245 242 238 242 258 273 270 269 198 238 249 241 239 238
77 74 65 58 65 62 51 49 48 39 37 27 22 10 0 349 329 334 316 307 298 289 286 282 278 269 265 262 256 251 252 253 251 254 265 273 268 250 233 256 252 229 247
75 64 56 46 44 46 42 28 31 35 27 23 8 1 357 348 353 336 321 291 282 288 282 275 272 274 274 269 268 267 262 257 262 263 269 272 268 253 227 235 247 260 246
73 62 46 37 28 34 24 17 20 8 10 3 4 350 336 326 321 318 308 292 273 263 275 279 276 278 269 270 264 265 263 270 266 263 268 267 275 269 262 234 245 245 266
72 57 45 30 19 22 13 16 15 1 353 352 347 340 318 300 296 296 293 278 277 272 270 275 280 273 267 275 284 282 278 268 262 271 271 267 276 273 270 264 238 239 248
72 60 43 30 14 16 16 11 1 352 348 340 333 325 316 310 319 320 314 294 277 271 268 272 276 285 285 289 290 285 282 276 271 260 260 274 275 282 269 263 263 258 252
65 55 39 25 12 12 3 358 348 339 334 329 318 314 309 307 320 321 320 306 290 284 281 277 280 290 294 297 292 291 290 286 276 268 262 263 267 268 266 275 268 253 252
55 41 22 14 16 6 351 345 338 328 317 319 312 305 297 295 305 310 312 301 298 303 300 294 293 294 301 304 296 289 289 294 294 285 277 270 270 268 265 257 265 262 246
35 24 20 20 2 351 338 335 325 324 314 306 299 298 292 284 290 301 310 309 303 303 302 301 298 300 299 294 292 287 284 294 292 283 279 276 270 267 263 256 247 250 254
25 22 9 353 339 344 335 330 324 312 311 310 312 313 318 306 301 311 313 312 309 303 300 300 300 302 299 294 296 287 287 296 292 284 279 276 280 271 260 246 246 241 240
17 360 336 305 351 341 329 313 314 327 328 330 329 324 324 331 322 320 317 319 316 306 294 291 293 291 292 293 292 291 292 285 284 284 281 278 279 274 266 249 238 242 236
4 328 312 357 355 344 321 343 338 344 341 336 329 322 317 321 322 326 320 311 304 301 298 295 295 295 292 284 284 278 264 269 276 282 285 286 285 281 250 233 226 186 196
238 320 16 2 358 351 358 345 335 328 323 317 315 314 314 314 314 313 313 308 305 299 304 296 294 294 294 292 281 276 281 281 276 280 281 285 281 278 238 213 204 184 193
45 25 16 3 357 351 343 334 340 328 326 319 314 314 307 306 312 318 319 314 310 306 297 292 292 290 288 287 285 288 290 287 281 281 281 283 284 267 236 177 199 203 177
38 13 1 356 354 346 341 338 327 331 325 325 325 325 320 321 332 327 323 323 315 305 287 291 294 292 289 293 288 286 288 285 285 281 284 286 273 240 202 208 195 201 170
32 103 345 342 337 332 331 321 312 322 328 329 332 331 338 337 332 334 340 340 343 343 330 325 318 302 293 290 292 294 290 282 284 287 289 286 260 242 205 215 195 207 164
8 18 350 315 311 315 300 314 315 314 314 311 319 331 341 331 336 341 350 348 338 338 339 334 330 325 326 316 304 294 284 288 290 295 295 286 270 247 223 220 201 201 169
178 188 302 320 320 313 312 309 310 313 319 325 325 330 323 345 343 340 340 342 340 334 332 331 331 330 339 336 337 322 303 297 300 288 277 277 265 246 243 220 204 198 205
48 356 343 292 325 305 305 321 315 315 311 321 324 327 331 351 329 333 335 339 336 334 334 333 330 334 338 337 339 339 339 329 305 293 294 279 254 247 235 213 204 192 178
357 341 340 310 301 302 325 295 307 310 319 315 313 318 335 333 331 331 331 332 331 330 331 330 331 335 338 337 339 341 342 349 341 340 328 304 272 245 235 219 199 197 184
301 275 268 270 282 296 292 310 305 306 308 309 313 316 324 327 322 323 324 326 328 328 329 333 333 334 337 335 337 337 341 345 334 328 331 329 319 298 256 233 207 197 191
247 277 284 284 290 308 293 301 294 288 295 300 305 309 312 315 315 317 319 324 322 324 325 328 329 332 332 336 338 338 336 348 344 334 336 337 339 345 333 308 225 206 162
274 271 275 281 285 282 282 277 284 291 293 296 299 302 305 308 307 308 312 315 315 320 319 322 323 329 333 331 336 339 340 341 4 352 339 344 346 347 349 337 348 26 85
254 257 263 268 266 268 277 283 283 286 286 288 293 294 296 298 299 303 308 308 312 312 309 313 314 319 324 324 331 332 338 336 348 7 351 351 354 357 349 350 353 4 89